User: anonymous   Login
Location: Huntington Beach
(33.6600°N, 117.9980°W)
Time: 05:15:10
(UTC-08:00)
Language:

SL-16 R/B - Orbit

View from above orbital plane
View from above orbital plane
View from above satellite
View from above satellite

Ground track
Ground track

The orbit data is extracted from the following two-line orbital elements,

1 28353U 04021B   17346.74786717  .00000171  00000-0  11458-3 0  9997
2 28353  71.0028  63.9912 0007341 283.2339  76.7964 14.14206136697409
Epoch (UTC): 12 December 2017 17:56:55
Eccentricity: 0.0007341
inclination: 71.0028°
perigee height: 840 km
apogee height: 850 km
right ascension of ascending node: 63.9912°
argument of perigee: 283.2339°
revolutions per day: 14.14206136
mean anomaly at epoch: 76.7964°
orbit number at epoch: 69740

The dashed part of the orbit path shows where the satellite is in the earth's shadow,  

DLR